Das Wetter in  D-61279 Heinzenberg / Taunus





Wetter Minimum- & Maximum-Werte im April 2013

Standort: Heinzenberg / Taunus - Höhe 297 m         8 24' 1" Ost 50 21' 51" Nord
(   3-stündige Aktualisierung    letzte Aktualisierung um 19:04 am 30.04.2013  )


Messgrösse

Minimum

Maximum

Durchschnitt

Temperatur West /
Luftfeuchte West
Anklicken für Monats-Diagramm

-5,7 C

06:11
01.04.2013

35 %

19:12
25.04.2013

26,5 C

18:07
25.04.2013

89 %

06:17
12.04.2013

Temp

8,9 C

Feuchte

66 %

Temperatur Ost /
Luftfeuchte Ost
Anklicken für Monats-Diagramm

-5,6 C

06:26
01.04.2013

--

--
--

27,2 C

14:15
15.04.2013

--

--
--

8,9 C

--

Luftdruck Anklicken für Monats-Diagramm

999,3 hPa

15:35
11.04.2013

1028,8 hPa

05:42
20.04.2013

1015,6 hPa

Taupunkt

-10,2 C

06:12
02.04.2013

12,8 C

11:21
16.04.2013

2,5 C

Windchill
( gefühlte Temperatur )

-10,4 C

08:57
02.04.2013

26,5 C

18:07
25.04.2013

6,6 C

Windgeschwindigkeit /
Windrichtung
Anklicken für Monats-Diagramm

---

54,0 km/h / W-SW

14:35
11.04.2013

8,6 km/h
W-SW

Helligkeit /
Sonnenschein
Anklicken für Monats-Diagramm
Anklicken für Monats-Diagramm

Sonnenschein:

130:27 Stunden

Max: 11:25 Std am
24.04.2013

97,2 klux

13:05
18.04.2013

27,1 klux

Solarstrahlung Anklicken für Monats-Diagramm

---

665 W/m

13:05
18.04.2013

198 W/m

Regenmenge
    April 2013
Anklicken für Monats-Diagramm

Insgesamt 45,1 l/m

in 71:17 Stunden
an 12 Tagen

13,1 l/m

18:27
12.04.2013

Gesamtmenge

45,1 l/m

Regen-Tage
    April 2013
Anklicken für Monats-Diagramm

>   0 mm/Tag

>   2 mm/Tag

>   5 mm/Tag

> 10 mm/Tag

> 20 mm/Tag

12 Tage     
6 Tage     
4 Tage     
  1 Tag     
0 Tage     

Eisige Tage April 2013 / 2012

Tmin ≤ -10C     

0 Tage

/

0 Tage

Eistage April 2013 / 2012

Tmax <     0C     

0 Tage

/

0 Tage

Frosttage April 2013 / 2012

Tmin ≤     0C     

9 Tage

/

8 Tage

Kalte Tage April 2013 / 2012

Tmax <   10C     

8 Tage

/

4 Tage

Warme Tage April 2013 / 2012

Tmax ≥   20C     

7 Tage

/

3 Tage

Sommertage April 2013 / 2012

Tmax ≥   25C     

2 Tage

/

2 Tage

Heisse Tage April 2013 / 2012

Tmax ≥   30C     

0 Tage

/

  1 Tag


Monatsdiagramm April 2013

Die Kurven zeigen den Durchschnittswert des jeweiligen Tages an


Wetter-Monatsübersicht April 2013
Datum
  Temperatur
   Luftdruck
   Wind
  Regen
   Luftfeuchte
   Helligkeit

Sonnen-
schein


Temp.

Min.
Temp.

Max.
Temp.


Luftdruck

Min.
Luftdruck

Max.
Luftdruck

-Geschw.
Haupt-Richtg.

Max.
Wind

Menge /
Dauer


Feuchte

Min.
Feuchte

Max.
Feuchte


Helligkeit

Max.
Helligkeit

1.
April
0,1 C-5,7 C
06:11
6,4 C
17:21
1011,1 hPa1008,0 hPa
17:41
1013,3 hPa
00:41
5,8 km/h
O
27,8 km/h
12:51  
---
61 %44 %
17:21
81 %
08:51
31,5 klux87,4 klux
13:11
5:51 Std 
2.
April
0,8 C-4,6 C
06:12
5,9 C
13:22
1011,4 hPa1010,1 hPa
13:22
1014,1 hPa
22:58
9,1 km/h
O-NO
36,1 km/h
16:22  
---
57 %44 %
12:42
67 %
06:57
37,1 klux76,1 klux
13:22
8:45 Std 
3.
April
1,3 C-1,0 C
23:59
5,2 C
15:58
1014,7 hPa1013,4 hPa
17:23
1016,0 hPa
11:23
8,6 km/h
O-NO
33,7 km/h
16:33  
---
63 %53 %
15:58
70 %
07:28
15,6 klux54,5 klux
15:48
1:15 Std 
4.
April
2,1 C-2,1 C
02:09
8,0 C
16:39
1011,6 hPa1008,8 hPa
16:39
1014,3 hPa
02:09
7,0 km/h
NO
27,3 km/h
16:49  
---
64 %52 %
14:54
72 %
07:24
27,3 klux73,7 klux
14:34
4:50 Std 
5.
April
1,4 C-0,2 C
02:15
2,7 C
16:05
1010,3 hPa1008,7 hPa
10:00
1013,8 hPa
23:26
6,3 km/h
NO
22,8 km/h
06:15  
---
70 %67 %
17:10
72 %
07:00
5,5 klux11,8 klux
13:10
--- 
6.
April
2,0 C-1,3 C
23:47
4,8 C
17:21
1018,1 hPa1013,8 hPa
00:01
1023,5 hPa
23:47
2,8 km/h
NO
20,8 km/h
18:31  
0,2 l/m
4:55 Stunden
77 %71 %
17:36
84 %
09:31
9,8 klux27,2 klux
14:11
--- 
7.
April
2,1 C-5,0 C
06:52
11,0 C
17:32
1021,1 hPa1016,8 hPa
17:42
1024,9 hPa
08:47
2,6 km/h
SO
20,5 km/h
16:37  
---
64 %36 %
17:17
84 %
09:37
33,6 klux82,8 klux
13:52
7:30 Std 
8.
April
3,5 C-3,3 C
06:28
10,4 C
16:33
1008,8 hPa1003,4 hPa
16:53
1017,3 hPa
00:13
8,7 km/h
SO
32,2 km/h
14:33  
0,2 l/m
2:21 Stunden
61 %40 %
13:53
75 %
23:39
30,3 klux78,7 klux
15:48
3:25 Std 
9.
April
4,6 C-0,2 C
06:24
9,1 C
13:19
1003,1 hPa1001,4 hPa
13:19
1004,7 hPa
06:24
4,9 km/h
W-SW
30,7 km/h
15:44  
3,0 l/m
5:55 Stunden
79 %67 %
12:59
85 %
08:38
13,0 klux49,0 klux
10:39
25 Min 
10.
April
7,4 C4,7 C
00:00
10,8 C
15:20
1005,6 hPa1001,8 hPa
03:40
1009,0 hPa
23:00
13,5 km/h
W-SW
44,3 km/h
16:05  
1,8 l/m
3:50 Stunden
80 %64 %
15:50
88 %
07:20
16,4 klux86,9 klux
14:35
20 Min 
11.
April
11,4 C6,4 C
00:00
18,1 C
15:35
1001,7 hPa999,3 hPa
15:35
1009,0 hPa
00:00
17,7 km/h
W-SW
54,0 km/h
14:35  
5,8 l/m
7:05 Stunden
73 %46 %
15:30
87 %
09:40
29,2 klux94,9 klux
13:05
3:20 Std 
12.
April
9,7 C6,4 C
07:42
14,3 C
17:47
1003,7 hPa999,3 hPa
01:52
1008,8 hPa
23:48
15,6 km/h
W-SW
51,9 km/h
16:12  
13,1 l/m
9:15 Stunden
78 %59 %
14:12
89 %
06:17
32,0 klux94,5 klux
14:22
5:00 Std 
13.
April
10,4 C7,3 C
03:18
15,0 C
17:13
1016,7 hPa1008,8 hPa
00:03
1023,3 hPa
23:04
23,7 km/h
W
45,0 km/h
10:08  
0,2 l/m
35 Minuten
65 %47 %
17:48
80 %
03:08
39,7 klux94,0 klux
13:03
8:55 Std 
14.
April
14,8 C8,4 C
00:04
22,5 C
17:59
1023,1 hPa1020,6 hPa
18:59
1024,8 hPa
10:04
7,2 km/h
W-SW
26,0 km/h
09:59  
---
61 %46 %
19:04
73 %
07:49
29,2 klux83,5 klux
14:09
4:55 Std 
15.
April
16,8 C7,9 C
07:25
25,9 C
14:10
1019,5 hPa1017,1 hPa
14:10
1021,7 hPa
00:05
5,7 km/h
W-SW
34,2 km/h
14:40  
---
60 %39 %
14:15
80 %
08:15
35,7 klux74,6 klux
13:25
8:05 Std 
16.
April
15,6 C11,6 C
07:11
20,7 C
17:06
1019,8 hPa1018,6 hPa
02:41
1021,4 hPa
23:47
10,0 km/h
W
34,1 km/h
16:56  
---
1:49 Stunden
69 %47 %
16:56
89 %
09:56
31,5 klux77,2 klux
12:56
5:05 Std 
17.
April
15,8 C10,0 C
06:37
23,2 C
17:32
1021,2 hPa1016,4 hPa
23:58
1024,1 hPa
06:37
6,1 km/h
W-SW
24,1 km/h
12:27  
---
61 %45 %
17:22
75 %
08:57
22,8 klux82,5 klux
15:57
1:55 Std 
18.
April
16,4 C11,4 C
23:51
19,4 C
14:05
1016,1 hPa1013,7 hPa
09:15
1019,8 hPa
23:51
16,7 km/h
W
43,0 km/h
17:50  
---
56 %39 %
18:55
70 %
01:03
45,2 klux97,2 klux
13:05
8:13 Std 
19.
April
10,4 C7,9 C
06:26
13,0 C
17:21
1023,0 hPa1019,8 hPa
00:01
1026,4 hPa
23:57
8,7 km/h
NW
29,8 km/h
13:11  
---
53 %42 %
16:06
65 %
08:06
27,0 klux75,9 klux
12:21
2:15 Std 
20.
April
8,7 C5,9 C
04:42
11,8 C
12:27
1027,1 hPa1025,0 hPa
18:17
1028,8 hPa
05:42
9,0 km/h
NO
26,8 km/h
13:07  
---
58 %47 %
12:12
73 %
06:47
25,5 klux90,6 klux
12:17
3:40 Std 
21.
April
10,9 C6,7 C
06:48
16,1 C
15:08
1019,3 hPa1015,2 hPa
16:33
1025,4 hPa
00:48
4,0 km/h
W
22,7 km/h
18:28  
---
57 %50 %
14:03
63 %
23:44
26,8 klux70,9 klux
12:48
3:45 Std 
22.
April
11,8 C8,4 C
05:54
17,3 C
17:14
1016,7 hPa1014,9 hPa
17:14
1018,0 hPa
09:04
5,1 km/h
NW
21,9 km/h
16:44  
---
58 %46 %
17:14
67 %
07:44
30,0 klux75,0 klux
14:54
4:40 Std 
23.
April
12,1 C6,3 C
05:55
17,6 C
15:45
1020,9 hPa1017,9 hPa
00:00
1024,9 hPa
23:41
12,1 km/h
W
34,4 km/h
12:35  
---
60 %47 %
15:50
70 %
06:05
33,1 klux88,8 klux
13:50
4:25 Std 
24.
April
14,1 C5,2 C
06:51
22,9 C
17:26
1025,5 hPa1022,6 hPa
19:06
1027,8 hPa
07:06
5,8 km/h
W-SW
22,2 km/h
12:01  
---
62 %41 %
18:51
82 %
08:11
42,5 klux83,5 klux
12:16
11:25 Std 
25.
April
17,0 C7,8 C
06:42
26,5 C
18:07
1022,8 hPa1017,5 hPa
20:27
1026,5 hPa
06:42
4,6 km/h
W-SW
22,0 km/h
17:17  
---
56 %35 %
19:12
79 %
08:12
41,4 klux90,2 klux
11:57
10:15 Std 
26.
April
13,1 C7,7 C
23:59
20,0 C
10:23
1011,0 hPa1005,1 hPa
19:28
1018,5 hPa
00:43
8,0 km/h
W-SW
30,6 km/h
10:48  
8,2 l/m
11:26 Stunden
72 %51 %
10:08
89 %
22:03
14,8 klux59,0 klux
10:13
2:45 Std 
27.
April
5,8 C4,3 C
07:29
7,7 C
00:04
1009,1 hPa1006,8 hPa
00:04
1012,3 hPa
23:50
7,6 km/h
N
18,0 km/h
12:39  
9,6 l/m
17:06 Stunden
86 %83 %
11:59
89 %
00:14
11,0 klux33,5 klux
11:14
--- 
28.
April
6,8 C4,3 C
07:00
11,2 C
17:15
1015,6 hPa1012,3 hPa
00:00
1018,3 hPa
12:20
4,2 km/h
NO
21,1 km/h
17:05  
0,8 l/m
1:35 Stunden
80 %66 %
17:05
88 %
02:50
14,8 klux74,4 klux
15:55
45 Min 
29.
April
10,4 C6,8 C
06:15
16,2 C
17:15
1017,4 hPa1016,1 hPa
00:00
1021,3 hPa
23:51
11,5 km/h
W
35,6 km/h
12:25  
---
64 %40 %
15:55
84 %
04:20
39,9 klux86,7 klux
13:10
8:03 Std 
30.
April
8,6 C3,9 C
04:36
14,2 C
14:11
1021,9 hPa1020,5 hPa
14:11
1024,4 hPa
22:16
4,4 km/h
NO
24,6 km/h
17:51  
2,4 l/m
5:25 Stunden
68 %49 %
14:01
81 %
08:01
20,4 klux79,4 klux
13:56
40 Min 



April
2013

Temperatur

  

Luftdruck

  

Wind

  

Regen

  

Luftfeuchte

  

Helligkeit

Sonnen-
schein

Min

Max

Min

Max

Max

Max

Min

Max

Max

Max

8,9 C

-5,7 C

06:11 Uhr
01.04.2013

26,5 C

18:07 Uhr
25.04.2013

1015,6 hPa

999,3 hPa

15:35 Uhr
11.04.2013

1028,8 hPa

05:42 Uhr
20.04.2013

8,6 km/h

W-SW

54,0 km/h

14:35 Uhr
11.04.2013

13,1 l/m

9:15 Stunden
12.04.2013

66 %

35 %

19:12 Uhr
25.04.2013

89 %

06:17 Uhr
12.04.2013

27,1 klux

97,2 klux

13:05 Uhr
18.04.2013

11:25 Std

am
24.04.2013

Gesamt

Gesamt

45,1 l/m

12 Tage
71:17 h

130:27 Std


Wetter-Diagramme April 2013     Heinzenberg / Taunus   
TemperaturLuftfeuchte
SolarstrahlungLuftdruck
HelligkeitSonnenschein
RegenmengeRegendauer
Wind-GeschwindigkeitWind-Richtung